EDT,Max TemperatureF,Mean TemperatureF,Min TemperatureF,Max Dew PointF,MeanDew PointF,Min DewpointF,Max Humidity, Mean Humidity, Min Humidity, Max Sea Level PressureIn, Mean Sea Level PressureIn, Min Sea Level PressureIn, Max VisibilityMiles, Mean VisibilityMiles, Min VisibilityMiles, Max Wind SpeedMPH, Mean Wind SpeedMPH, Max Gust SpeedMPH,PrecipitationIn, CloudCover, Events, WindDirDegrees
2013-5-1,79,64,48,57,50,34,81,57,42,30.30,30.12,29.91,10,10,10,15,10,26,0.00,1,,344
2013-5-2,73,56,39,47,39,34,83,63,41,30.31,30.25,30.16,10,10,10,14,6,,0.00,1,,343
2013-5-3,68,52,37,45,40,34,89,64,40,30.22,30.15,30.09,10,10,10,10,5,,0.00,4,,16
2013-5-4,77,57,39,45,39,27,93,53,25,30.15,30.13,30.08,10,10,8,16,3,25,0.00,0,,99
2013-5-5,75,55,35,40,35,31,89,52,22,30.17,30.12,30.05,10,10,10,17,3,22,0.00,0,,60
2013-5-6,77,56,36,40,35,27,93,51,18,30.12,30.08,30.03,10,10,10,14,3,,0.00,0,,34
2013-5-7,79,57,36,40,32,26,93,47,15,30.12,30.07,30.03,10,10,10,14,4,21,0.00,0,,60
2013-5-8,81,60,39,40,36,32,86,46,18,30.05,30.02,29.98,10,10,10,9,2,17,0.00,0,,332
2013-5-9,73,56,39,44,40,36,89,59,29,30.05,29.99,29.96,10,10,6,14,3,,0.07,2,Rain,21
2013-5-10,46,40,37,41,37,35,100,86,74,30.07,30.02,29.95,10,9,6,18,9,24,0.36,8,Rain,54
2013-5-11,50,39,30,41,34,28,96,85,63,29.95,29.79,29.70,10,8,2,18,5,28,0.25,6,Rain-Snow,286
2013-5-12,41,36,33,34,27,22,100,72,50,30.07,29.85,29.70,10,9,2,30,19,41,0.16,8,Rain-Snow,301
2013-5-13,50,38,28,30,24,18,89,58,29,30.15,30.10,30.06,10,10,10,16,7,23,0.00,0,,273
2013-5-14,66,52,39,43,37,27,86,59,39,30.03,29.84,29.65,10,10,10,21,7,26,0.06,3,Rain,122
2013-5-15,71,56,42,46,41,34,85,55,28,29.76,29.64,29.46,10,10,10,26,11,36,0.00,0,,276
2013-5-16,63,52,41,39,37,34,82,57,39,30.11,29.94,29.76,10,10,10,20,8,25,0.00,0,,305
2013-5-17,70,50,32,41,37,29,96,64,36,30.23,30.18,30.12,10,10,10,15,4,20,0.00,1,,103
2013-5-18,63,51,39,45,40,36,89,65,41,30.23,30.17,30.05,10,10,10,12,3,17,0.00,5,Rain,114
2013-5-19,81,67,53,58,51,41,80,55,43,30.02,29.95,29.88,10,10,10,16,5,16,0.00,3,,127
2013-5-20,75,64,54,64,57,49,100,84,55,29.91,29.82,29.75,10,6,1,16,6,20,0.27,4,Rain-Thunderstorm,78
2013-5-21,71,61,52,61,54,51,100,90,66,29.82,29.75,29.69,10,7,0,13,8,20,0.21,7,Fog-Rain-Thunderstorm,79
2013-5-22,57,55,53,55,53,51,100,95,87,29.78,29.73,29.70,10,4,0,14,5,17,0.84,8,Fog-Rain,64
2013-5-23,53,48,42,50,40,30,94,78,45,30.26,29.98,29.78,10,9,4,20,15,33,0.58,6,Rain,5
2013-5-24,55,47,34,34,30,27,89,52,37,30.42,30.35,30.27,10,10,10,13,8,17,0.00,0,,316
2013-5-25,64,47,30,37,31,26,92,61,25,30.47,30.40,30.34,10,10,10,13,3,20,0.00,0,,339
2013-5-26,68,48,30,38,30,22,93,55,19,30.40,30.33,30.25,10,10,10,9,2,,0.00,0,,83
2013-5-27,72,50,30,43,31,25,96,51,19,30.28,30.17,30.04,10,10,10,16,4,21,0.00,0,,119
2013-5-28,55,52,50,53,46,31,96,81,40,30.02,29.88,29.77,10,7,2,13,7,18,0.30,7,Rain,98
2013-5-29,66,58,51,59,54,50,100,91,70,29.95,29.86,29.76,10,5,0,12,2,,0.01,7,Fog,244
2013-5-30,88,70,51,70,57,50,100,83,42,29.95,29.92,29.86,10,5,0,15,2,41,0.23,3,Fog-Rain-Thunderstorm,181
2013-5-31,80,72,64,66,63,60,94,74,52,29.91,29.82,29.77,10,10,6,17,10,28,0.09,3,Rain-Thunderstorm,210